Pickens County Airport, SC

6:28 PM EDT on May 26, 2017 (GMT -0400)
Pickens County

Weather History for KLQK - February, 2014

Change the Weather History Date:

Thursday, February 27, 2014

  Actual Average Record
Temperature  
Mean Temperature 40 °F -  
Max Temperature 59 °F 59 °F 85 °F (2016)
Min Temperature 20 °F 34 °F 20 °F (2014)
Degree Days  
Heating Degree Days 26    
Moisture  
Dew Point 18 °F    
Average Humidity 51    
Maximum Humidity 100    
Minimum Humidity 17    
Precipitation  
Precipitation 0.00 in - - ()
Sea Level Pressure  
Sea Level Pressure 29.84 in    
Wind  
Wind Speed - (North)    
Max Wind Speed -    
Max Gust Speed -    
Visibility 10 miles    
Events      
Averages and records for this station are not official NWS values.
T = Trace of Precipitation, MM = Missing Value Source: NWS Daily Summary

Daily Weather History Graph

Daily Weather History Graph

Search for Another Location

Airport or City:

Trip Planner

Search our weather history database for the weather conditions in past years. The results will help you decide how hot, cold, wet, or windy it might be!

Date:

Astronomy

Feb. 27, 2014 Rise Set
Actual Time 7:02 AM EST 6:24 PM EST
Civil Twilight 6:37 AM EST 6:50 PM EST
Nautical Twilight 6:07 AM EST 7:19 PM EST
Astronomical Twilight 5:38 AM EST 7:48 PM EST
Moon 5:31 AM EST (2/27) 4:51 PM EST (2/27)
Length of Visible Light 12h 13m
Length of Day
11h 22m
Waning Crescent, 4% of the Moon is Illuminated
Feb 27
Waning Crescent
Mar 1
New
Mar 8
First Quarter
Mar 16
Full
Mar 23
Last Quarter

Hourly Weather History & Observations

Time (EST) Temp. Dew Point Humidity Pressure Visibility Wind Dir Wind Speed Gust Speed Precip Events Conditions
12:15 AM 34.0 °F 22.8 °F 64% 29.82 in 10.0 mi North - - N/A   Clear
12:35 AM 34.3 °F 22.3 °F 61% 29.81 in 10.0 mi North - - N/A   Clear
12:55 AM 33.8 °F 22.1 °F 62% 29.81 in 10.0 mi North - - N/A   Clear
1:15 AM 32.7 °F 21.9 °F 64% 29.81 in 10.0 mi North - - N/A   Clear
1:35 AM 29.8 °F 22.8 °F 75% 29.82 in 10.0 mi North - - N/A   Clear
1:55 AM 29.5 °F 23.5 °F 79% 29.82 in 10.0 mi North - - N/A   Clear
2:15 AM 27.7 °F 23.9 °F 86% 29.82 in 10.0 mi North - - N/A   Clear
2:35 AM 27.9 °F 23.0 °F 82% 29.83 in 10.0 mi North - - N/A   Clear
2:55 AM 27.3 °F 23.2 °F 84% 29.82 in 10.0 mi North - - N/A   Clear
3:15 AM 26.8 °F 23.5 °F 88% 29.82 in 10.0 mi North - - N/A   Clear
3:35 AM 26.2 °F 23.4 °F 89% 29.81 in 10.0 mi North - - N/A   Clear
3:55 AM 25.9 °F 22.6 °F 88% 29.82 in 10.0 mi North - - N/A   Clear
4:15 AM 25.3 °F 22.6 °F 89% 29.82 in 10.0 mi North - - N/A   Clear
4:35 AM 24.8 °F 23.5 °F 95% 29.82 in 10.0 mi North - - N/A   Clear
4:55 AM 23.9 °F 23.5 °F 99% 29.82 in 10.0 mi North - - N/A   Clear
5:15 AM 24.1 °F 23.7 °F 99% 29.82 in 10.0 mi North - - N/A   Clear
5:35 AM 23.5 °F 22.6 °F 96% 29.83 in 10.0 mi North - - N/A   Clear
5:55 AM 22.3 °F 21.7 °F 98% 29.83 in 10.0 mi North - - N/A   Clear
6:15 AM 22.3 °F 21.2 °F 96% 29.84 in 10.0 mi North - - N/A   Clear
6:35 AM 21.0 °F 21.0 °F 100% 29.84 in 10.0 mi North - - N/A   Clear
6:55 AM 21.0 °F 21.2 °F 100% 29.84 in 10.0 mi North - - N/A   Clear
7:15 AM 21.4 °F 21.4 °F 100% 29.84 in 10.0 mi North - - N/A   Clear
7:35 AM 20.5 °F 20.7 °F 100% 29.85 in 10.0 mi North - - N/A   Clear
7:55 AM 22.8 °F 22.6 °F 99% 29.86 in 10.0 mi North - - N/A   Clear
8:15 AM 26.4 °F 24.3 °F 92% 29.86 in 10.0 mi North - - N/A   Clear
8:35 AM 29.3 °F 25.3 °F 85% 29.86 in 10.0 mi North - - N/A   Clear
8:55 AM 31.6 °F 25.7 °F 79% 29.87 in 10.0 mi North - - N/A   Clear
9:15 AM 33.8 °F 24.8 °F 70% 29.87 in 10.0 mi North - - N/A   Clear
9:35 AM 36.1 °F 23.0 °F 59% 29.87 in 10.0 mi North - - N/A   Clear
9:55 AM 38.3 °F 19.0 °F 46% 29.87 in 10.0 mi North - - N/A   Clear
10:15 AM 40.5 °F 19.4 °F 43% 29.87 in 10.0 mi North - - N/A   Clear
10:35 AM 42.1 °F 19.9 °F 41% 29.86 in 10.0 mi North - - N/A   Clear
10:55 AM 44.2 °F 20.8 °F 39% 29.86 in 10.0 mi North - - N/A   Clear
11:15 AM 45.9 °F 18.7 °F 34% 29.86 in 10.0 mi North - - N/A   Clear
11:35 AM 47.5 °F 14.0 °F 26% 29.86 in 10.0 mi North - - N/A   Clear
11:55 AM 48.2 °F 13.1 °F 24% 29.86 in 10.0 mi North - - N/A   Clear
12:15 PM 49.1 °F 13.1 °F 24% 29.85 in 10.0 mi North - - N/A   Clear
12:35 PM 50.2 °F 13.5 °F 23% 29.84 in 10.0 mi North - - N/A   Clear
12:55 PM 51.3 °F 14.2 °F 23% 29.83 in 10.0 mi North - - N/A   Clear
1:15 PM 51.6 °F 13.6 °F 22% 29.82 in 10.0 mi North - - N/A   Clear
1:35 PM 53.4 °F 13.8 °F 21% 29.81 in 10.0 mi North - - N/A   Clear
1:55 PM 54.5 °F 13.1 °F 19% 29.80 in 10.0 mi North - - N/A   Clear
2:15 PM 54.7 °F 13.6 °F 20% 29.80 in 10.0 mi North - - N/A   Clear
2:35 PM 54.9 °F 13.8 °F 20% 29.79 in 10.0 mi North - - N/A   Clear
2:55 PM 56.3 °F 14.7 °F 19% 29.79 in 10.0 mi North - - N/A   Clear
3:15 PM 56.8 °F 14.4 °F 19% 29.78 in 10.0 mi North - - N/A   Clear
3:35 PM 58.1 °F 15.1 °F 19% 29.78 in 10.0 mi North - - N/A   Clear
3:55 PM 59.5 °F 14.9 °F 17% 29.78 in 10.0 mi North - - N/A   Clear
4:15 PM 59.9 °F 14.5 °F 17% 29.78 in 10.0 mi North - - N/A   Clear
4:35 PM 59.7 °F 14.2 °F 17% 29.78 in 10.0 mi North - - N/A   Clear
4:55 PM 59.5 °F 14.0 °F 17% 29.79 in 10.0 mi North - - N/A   Clear
5:15 PM 58.6 °F 13.6 °F 17% 29.79 in 10.0 mi North - - N/A   Clear
5:35 PM 57.7 °F 13.5 °F 18% 29.79 in 10.0 mi North - - N/A   Clear
5:55 PM 56.3 °F 13.1 °F 18% 29.80 in 10.0 mi North - - N/A   Clear
6:15 PM 54.5 °F 13.8 °F 20% 29.80 in 10.0 mi North - - N/A   Clear
6:35 PM 51.8 °F 13.6 °F 22% 29.81 in 10.0 mi North - - N/A   Clear
6:55 PM 50.2 °F 11.1 °F 21% 29.82 in 10.0 mi North - - N/A   Clear
7:15 PM 48.6 °F 9.7 °F 21% 29.83 in 10.0 mi North - - N/A   Clear
7:35 PM 46.4 °F 9.7 °F 23% 29.83 in 10.0 mi North - - N/A   Clear
7:55 PM 46.0 °F 9.7 °F 23% 29.85 in 10.0 mi North - - N/A   Clear
8:15 PM 45.3 °F 9.5 °F 23% 29.87 in 10.0 mi North - - N/A   Clear
8:35 PM 42.8 °F 10.2 °F 26% 29.87 in 10.0 mi North - - N/A   Clear
8:55 PM 40.3 °F 11.5 °F 31% 29.88 in 10.0 mi North - - N/A   Clear
9:15 PM 40.5 °F 11.3 °F 30% 29.88 in 10.0 mi North - - N/A   Clear
9:35 PM 39.0 °F 11.3 °F 32% 29.90 in 10.0 mi North - - N/A   Clear
9:55 PM 37.9 °F 11.3 °F 33% 29.91 in 10.0 mi North - - N/A   Clear
10:15 PM 36.9 °F 11.7 °F 35% 29.92 in 10.0 mi North - - N/A   Clear
10:35 PM 34.7 °F 13.5 °F 42% 29.92 in 10.0 mi North - - N/A   Clear
10:55 PM 32.2 °F 15.4 °F 50% 29.93 in 10.0 mi North - - N/A   Clear
11:15 PM 30.6 °F 16.9 °F 57% 29.93 in 10.0 mi North - - N/A   Clear
11:35 PM 29.1 °F 18.0 °F 63% 29.94 in 10.0 mi North - - N/A   Clear
11:55 PM 28.8 °F 15.6 °F 58% 29.94 in 10.0 mi North - - N/A   Clear